Valentine, NE

4:15 PM CDT on August 22, 2017 (GMT -0500)
Miller Field

Weather History for KVTN - May, 2013

Change the Weather History Date:

Monday, May 13, 2013

  Actual Average Record
Temperature  
Mean Temperature 72 °F 57 °F  
Max Temperature 93 °F 70 °F 97 °F (1941)
Min Temperature 51 °F 43 °F 25 °F (1966)
Degree Days  
Heating Degree Days 0 9  
Month to date heating degree days 180 143  
Since 1 July heating degree days 6822 6826  
Cooling Degree Days 7 1  
Month to date cooling degree days 7 10  
Year to date cooling degree days 7 14  
Growing Degree Days 22 (Base 50)    
Moisture  
Dew Point 41 °F    
Average Humidity 39    
Maximum Humidity 63    
Minimum Humidity 15    
Precipitation  
Precipitation 0.00 in 0.11 in 2.14 in (1982)
Month to date precipitation 0.56 1.23  
Year to date precipitation 5.22 5.26  
Snow  
Snow 0.00 in 0.00 in T in (1995)
Month to date snowfall 2.0 0.1  
Since 1 July snowfall 54.0 33.3  
Snow Depth 0.00 in    
Sea Level Pressure  
Sea Level Pressure 29.87 in    
Wind  
Wind Speed 9 mph (West)    
Max Wind Speed 21 mph    
Max Gust Speed 26 mph    
T = Trace of Precipitation, MM = Missing Value Source: NWS Daily Summary

Daily Weather History Graph

Daily Weather History Graph

Search for Another Location

Airport or City:

Trip Planner

Search our weather history database for the weather conditions in past years. The results will help you decide how hot, cold, wet, or windy it might be!

Date:

Astronomy

May. 13, 2013 Rise Set
Actual Time 6:21 AM CDT 8:56 PM CDT
Civil Twilight 5:48 AM CDT 9:28 PM CDT
Nautical Twilight 5:08 AM CDT 10:09 PM CDT
Astronomical Twilight 4:22 AM CDT 10:55 PM CDT
Moon 9:08 AM CDT (5/13) No Moon Set
Length of Visible Light 15h 40m
Length of Day
14h 35m
Waxing Crescent, 12% of the Moon is Illuminated
May 13
Waxing Crescent
May 17
First Quarter
May 24
Full
May 31
Last Quarter
Jun 8
New

Hourly Weather History & Observations

Time (CDT) Temp. Dew Point Humidity Pressure Visibility Wind Dir Wind Speed Gust Speed Precip Events Conditions
12:52 AM 62.1 °F 39.0 °F 43% 29.98 in - SSW 15.0 mph - N/A   Clear
1:52 AM 60.1 °F 39.9 °F 47% 29.96 in - SSW 13.8 mph - N/A   Clear
2:52 AM 59.0 °F 39.0 °F 48% 29.94 in - SSW 12.7 mph - N/A   Clear
3:52 AM 55.9 °F 39.9 °F 55% 29.93 in - SSW 10.4 mph - N/A   Clear
4:52 AM 51.1 °F 39.9 °F 66% 29.93 in - SW 5.8 mph - N/A   Clear
5:52 AM 54.0 °F 39.9 °F 59% 29.90 in - SSW 10.4 mph - N/A   Clear
6:52 AM 57.9 °F 41.0 °F 53% 29.88 in - SW 10.4 mph - N/A   Clear
7:52 AM 61.0 °F 43.0 °F 52% 29.89 in - WSW 6.9 mph - N/A   Clear
8:52 AM 64.9 °F 43.0 °F 45% 29.90 in - WSW 11.5 mph - N/A   Clear
9:52 AM 70.0 °F 43.0 °F 38% 29.89 in - WSW 10.4 mph - N/A   Clear
10:52 AM 80.1 °F 43.0 °F 27% 29.87 in - WNW 12.7 mph - N/A   Clear
11:52 AM 87.1 °F 43.0 °F 21% 29.86 in - NNW 9.2 mph - N/A   Clear
12:52 PM 90.0 °F 39.9 °F 17% 29.86 in - NNW 16.1 mph 25.3 mph N/A   Clear
1:52 PM 93.0 °F 41.0 °F 16% 29.85 in - NW 12.7 mph 20.7 mph N/A   Clear
3:52 PM 93.0 °F 39.0 °F 15% 29.84 in - NNW 12.7 mph 21.9 mph N/A   Clear
4:52 PM 91.0 °F 39.9 °F 17% 29.84 in - NNW 11.5 mph 20.7 mph N/A   Clear
5:52 PM 91.9 °F 39.9 °F 16% 29.83 in - NW 8.1 mph - N/A   Clear
6:52 PM 91.4 °F 37.4 °F 15% 29.88 in - NW 6.9 mph - N/A   Clear
7:52 PM 89.1 °F 39.9 °F 18% 29.80 in - NNE 6.9 mph - N/A   Clear
8:52 PM 80.1 °F 43.0 °F 27% 29.80 in - East 4.6 mph - N/A   Clear
9:52 PM 73.0 °F 44.1 °F 35% 29.81 in - ESE 3.5 mph - N/A   Clear
10:52 PM 66.9 °F 44.1 °F 44% 29.81 in - Calm Calm - N/A   Clear
11:52 PM 64.9 °F 44.1 °F 47% 29.78 in - South 5.8 mph - N/A   Clear